Location: Ariel
(45.9570°N, 122.5700°W)
Time: 09:10:48
(UTC-07:00)

Vanguard 3 - Pass Details

Date: 01 September 2019
Orbit: 508 x 3263 km, 33.4° (Epoch: 14 September)

Event Time Altitude Azimuth Distance (km) Brightness Sun altitude
Rises 18:34:15 0° 264° (W) 5,548 13.5 12.0°
Reaches altitude 10° 18:39:09 10° 255° (WSW) 4,024 12.7 11.2°
Maximum altitude 18:46:55 27° 203° (SSW) 2,110 9.7 9.8°
Drops below altitude 10° 18:52:00 10° 147° (SSE) 2,541 9.4 8.9°
Sets 18:54:22 0° 134° (SE) 3,219 9.8 8.5°
